Regional Weather Roundup
Issued by NWS

Home | Current Version | Previous Version | Text Only | Print | Product List | Glossary Off
Versions: 1 2 3 4 5 6 7 8 9 10 11 12 13 14 15 16 17 18 19 20 21 22 23 24 25 26 27 28 29 30 31 32 33 34 35 36 37 38 39 40 41 42 43 44 45 46 47 48 49 50

000
ASUS43 KOAX 290210
RWRNE

WEATHER ROUNDUP FOR NEBRASKA
NATIONAL WEATHER SERVICE OMAHA NE
900 PM CDT TUE MAR 28 2017

NOTES: SATELLITE DATA IS BEING USED TO AUGMENT CLOUD COVER ABOVE
       12000 FEET.
       "FAIR" INDICATES FEW OR NO CLOUDS BELOW 12,000 FEET WITH NO
       SIGNIFICANT WEATHER AND/OR OBSTRUCTIONS TO VISIBILITY.

  * THESE STATIONS DO NOT REPORT WEATHER SUCH AS RAIN...SNOW OR FOG.

NEZ001>004-019>022-054>056-290300-
NEBRASKA PANHANDLE

CITY           SKY/WX    TMP DP  RH WIND       PRES   REMARKS
SCOTTSBLUFF    LGT RAIN  42  39  89 E12       30.08R
ALLIANCE       LGT RAIN  40  38  93 E8        30.08R WCI  34
CHADRON        CLOUDY    42  39  89 E7        30.11R
KIMBALL        LGT RAIN  40  40 100 E8        30.05R WCI  35
SIDNEY         LGT RAIN  39  38  96 E10       30.05R WCI  32
$$

NEZ057>060-069>072-079>082-290300-
SOUTHWEST NEBRASKA

CITY           SKY/WX    TMP DP  RH WIND       PRES   REMARKS
NORTH PLATTE   LGT RAIN  44  40  85 NE15      30.04S
IMPERIAL       LGT RAIN  43  40  89 CALM      30.02R
LEXINGTON      LGT RAIN  45  42  90 NE8       30.04F
MCCOOK         LGT RAIN  45  44  97 NE20      30.01R FOG
OGALLALA       LGT RAIN  44  42  92 NE12      30.05R
$$

NEZ005>010-023>029-035>040-094-290300-
NORTH CENTRAL NEBRASKA

CITY           SKY/WX    TMP DP  RH WIND       PRES   REMARKS
VALENTINE      CLOUDY    43  40  89 NE10      30.13F
AINSWORTH      LGT RAIN  43  43  99 NE9       30.12S
BROKEN BOW     LGT RAIN  46  40  79 NE6       30.07S
O`NEILL        CLOUDY    49  42  76 N6        30.11R
ORD            CLOUDY    47  40  76 CALM      30.08S
THEDFORD       DRIZZLE   43  42  97 NE3       30.10S
$$

NEZ041-046>049-061>064-073>077-083>087-290300-
SOUTH CENTRAL NEBRASKA

CITY           SKY/WX    TMP DP  RH WIND       PRES   REMARKS
GRAND ISLAND   LGT RAIN  44  43  96 NE9       30.07F
AURORA         DRIZZLE   44  43  95 NE10      30.06F
HASTINGS       LGT RAIN  44  41  89 NE9       30.07R FOG
HEBRON         RAIN      47  42  81 NE6       30.05R
HOLDREGE       RAIN      43  41  94 NE12      30.04S
KEARNEY *      CLOUDY    45  39  81 NE9       30.06S
YORK           CLOUDY    45  41  87 NE12      30.06F
$$

NEZ011>018-030>034-042>045-290300-
NORTHEAST NEBRASKA

CITY           SKY/WX    TMP DP  RH WIND       PRES   REMARKS
NORFOLK        CLOUDY    48  41  76 CALM      30.09R
ALBION         CLOUDY    47  41  79 SE3       30.10R
BLAIR          CLOUDY    48  43  81 NE9       30.09S
FREMONT        CLOUDY    49  42  77 E7        30.11R
TEKAMAH        CLOUDY    50  42  74 E8        30.11S
WAYNE          MOCLDY    49  44  81 SE6       30.12R
$$

NEZ050>053-065>068-078-088>093-290300-
SOUTHEAST NEBRASKA

CITY           SKY/WX    TMP DP  RH WIND       PRES   REMARKS
LINCOLN        CLOUDY    48  42  80 NE10      30.08F
OMAHA EPPLEY   CLOUDY    50  41  71 NE8       30.10R
BEATRICE       CLOUDY    48  43  82 NE17      30.00F
FALLS CITY     CLOUDY    52  47  83 E8        30.03F
NEBRASKA CITY  CLOUDY    49  41  74 NE9       30.07R
PLATTSMOUTH    CLOUDY    49  40  73 NE8       30.08S
$$

NEZ044-045-051>053-067-290300-
OMAHA AREA

CITY           SKY/WX    TMP DP  RH WIND       PRES   REMARKS
OMAHA EPPLEY   CLOUDY    50  41  71 NE8       30.10R
BLAIR          CLOUDY    48  43  81 NE9       30.09S
FREMONT        CLOUDY    49  42  77 E7        30.11R
MILLARD        CLOUDY    51  44  75 NE5       30.10R
OFFUTT AFB     CLOUDY    49  42  77 NE9       30.08R
PLATTSMOUTH    CLOUDY    49  40  73 NE8       30.08S
WAHOO          CLOUDY    47  42  85 N3        30.10R
$$




USA.gov is the U.S. government's official web portal to all federal, state and local government web resources and services.